#timestamp,LO_Frequency,Hit,StdDev 
1534356015.8,286047000.7,N
1534356035.7,286046999.0,N
1534356055.5,286047000.6,N
1534356075.3,286046999.5,N
1534356095.2,286047000.9,N
1534356115.0,286046999.1,N
1534356115.9,286046999.1,N
1534356135.7,286046996.6,N
1534356155.6,286046997.3,N
1534356175.4,286046997.1,N
1534356195.3,286046997.3,N
1534356215.1,286046995.2,N
1534356216.0,286046995.2,N
1534356235.8,286046999.6,N
1534356255.7,286046996.9,N
1534356275.5,286046998.3,N
1534356295.3,286046996.7,N
1534356315.2,286046998.9,N
1534356335.0,286047000.8,N
1534356335.9,286047000.8,N
1534356355.8,286047000.6,N
1534356375.6,286046998.7,N
1534356395.4,286047002.2,N
1534356415.3,286047000.2,N
1534356435.1,286046999.5,N
1534356455.8,286046998.3,N
1534356475.7,286046999.2,N
1534356495.5,286046998.3,N
1534356515.4,286047001.2,N
1534356535.2,286046998.6,N
1534356555.0,286046996.5,N
1534356555.9,286046996.5,N
1534356575.8,286046998.0,N
1534356595.6,286046995.3,N
1534356615.4,286046999.5,N
1534356635.3,286046999.2,N
1534356655.1,286046996.9,N
1534356675.9,286046997.0,N
1534356695.7,286046994.9,N
1534356715.5,286046995.0,N
1534356735.4,286046999.3,N
1534356755.2,286047000.5,N
1534356775.0,286047000.7,N
1534356775.9,286047000.7,N
1534356795.8,286046998.4,N
1534356815.6,286046996.8,N
1534356835.5,286046996.7,N
1534356855.3,286046996.7,N
1534356875.1,286046998.3,N
1534356895.9,286047000.0,N
1534356915.7,286047000.5,N
1534356935.5,286047000.1,N
1534356955.4,286047004.4,N
1534356975.2,286047002.1,N
1534356995.1,286047004.2,N
1534356996.0,286047004.2,N
1534357015.8,286047004.3,N
1534357035.6,286047001.7,N
1534357055.5,286047001.3,N
1534357075.3,286047004.3,N
1534357095.1,286047002.6,N
1534357115.9,286047000.4,N
1534357135.7,286046998.6,N
1534357155.6,286046998.9,N
1534357175.4,286046998.5,N
1534357195.2,286046998.3,N
1534357215.1,286046997.0,N
1534357216.0,286046997.0,N
1534357235.8,286046996.8,N
1534357255.6,286046999.6,N
1534357275.5,286046996.9,N
1534357295.3,286046996.5,N
1534357315.2,286046999.3,N
1534357335.9,286046996.7,N
1534357355.7,286046997.8,N
1534357375.6,286046996.9,N
1534357395.4,286046996.7,N
1534357415.2,286046997.3,N
1534357435.1,286046996.6,N
1534357436.0,286046996.6,N
1534357455.8,286046997.9,N
1534357475.6,286046998.0,N
1534357495.5,286046997.2,N
1534357515.3,286046998.8,N
1534357535.2,286046999.2,N
1534357555.9,286046998.5,N
1534357575.7,286046998.1,N
1534357595.6,286046999.2,N
1534357615.4,286046998.9,N
1534357635.2,286046997.1,N
1534357655.1,286046998.3,N
1534357656.0,286046998.3,N
1534357675.8,286047001.0,N
1534357695.7,286047002.8,N
1534357715.5,286047000.6,N
1534357735.3,286047000.5,N
1534357755.2,286046998.6,N
1534357775.0,286047000.3,N
1534357775.9,286047000.3,N
1534357795.7,286047000.7,N
1534357815.6,286047000.8,N
1534357835.4,286047002.0,N
1534357855.3,286047004.1,N
1534357875.1,286047006.0,Y
1534357876.0,286047006.0,P
1534357895.8,286047004.6,N
1534357915.7,286047004.5,N
1534357935.5,286047007.6,N
1534357955.3,286047006.8,N
1534357975.2,286047004.9,N
1534357995.0,286047004.8,N
1534357995.9,286047004.8,N
1534358015.8,286047005.0,N
1534358035.6,286047007.3,Y
1534358055.4,286047000.4,P
1534358075.3,286047000.5,N
1534358095.1,286047001.1,N
1534358115.8,286046998.7,N
1534358135.7,286046998.3,N
1534358155.5,286046998.5,N
1534358175.4,286046998.8,N
1534358195.2,286046999.4,N
1534358215.0,286046998.1,N
1534358215.9,286046998.1,N
1534358235.8,286047001.0,N
1534358255.6,286047001.1,N
1534358275.4,286047000.4,N
1534358295.3,286046998.6,N
1534358315.1,286047001.2,N
1534358335.9,286047001.2,N
1534358355.7,286046998.2,N
1534358375.5,286046998.5,N
1534358395.4,286046996.6,N
1534358415.2,286046998.6,N
1534358435.0,286046999.1,N
1534358436.0,286046999.1,N
1534358455.8,286047000.8,N
1534358475.6,286047001.1,N
1534358495.5,286047001.2,N
1534358515.3,286047000.3,N
1534358535.1,286047000.0,N
1534358555.9,286046999.8,N
1534358575.7,286047000.7,N
1534358595.6,286047000.2,N
1534358615.4,286047002.4,N
1534358635.2,286047000.1,N
1534358655.1,286046998.3,N
1534358656.0,286046998.3,N
1534358675.8,286047000.5,N
1534358695.6,286047000.9,N
1534358715.5,286046998.5,N
1534358735.3,286047001.2,N
1534358755.1,286047002.4,N
1534358775.9,286047002.5,N
1534358795.7,286047002.6,N
1534358815.6,286047002.1,N
1534358835.4,286047002.4,N
1534358855.2,286047001.6,N
1534358875.1,286047001.8,N
1534358876.0,286047001.8,N
1534358895.8,286047001.4,N
1534358915.6,286047002.2,N
1534358935.5,286047002.1,N
1534358955.3,286047003.9,N
1534358975.2,286047004.0,N
1534358995.9,286047003.3,N
1534359015.7,286047003.4,N
1534359035.6,286047003.3,N
1534359055.4,286047001.4,N
1534359075.2,286047001.6,N
1534359095.1,286047002.0,N
1534359096.0,286047002.0,N
1534359115.8,286047002.7,N
1534359135.7,286047002.2,N
1534359155.5,286047001.9,N
1534359175.3,286047001.7,N
1534359195.2,286047003.9,N
1534359215.0,286047003.5,N
1534359215.9,286047003.5,Y
1534359235.7,286046999.8,P
1534359255.6,286047001.8,N
1534359275.4,286046999.7,N
1534359295.3,286047002.7,N
1534359315.1,286047002.6,N
1534359335.8,286047002.8,N
1534359355.7,286047002.3,N
1534359375.5,286046999.7,N
1534359395.3,286047000.7,N
1534359415.2,286047002.7,N
1534359435.0,286047002.7,N
1534359435.9,286047002.7,N
1534359455.8,286047001.9,N
1534359475.6,286047004.3,Y
1534359495.4,286047001.8,P
1534359515.3,286047002.3,P
1534359535.1,286047002.8,P
1534359555.9,286047002.2,Y
1534359575.7,286046999.9,P
1534359595.5,286047011.9,P
